Location: S�tio Afonso Gruber
(26.1760°S, 49.5250°W)
Time: 08:37:38
(UTC+00:00)

Cosmos 1844 Rocket - Pass Details

Date: 08 October 2020
Orbit: 823 x 846 km, 71.0° (Epoch: 22 October)

Event Time Altitude Azimuth Distance (km) Brightness Sun altitude
Exits shadow 06:19:10 37° 65° (ENE) 1,280 3.8 -33.1°
Maximum altitude 06:19:39 38° 76° (ENE) 1,266 3.8 -33.0°
Drops below altitude 10° 06:24:51 10° 143° (SE) 2,473 5.8 -31.9°
Sets 06:27:27 0° 150° (SSE) 3,411 6.6 -31.4°
